Flag for U.S.A. Weather past 2 weeks in Irving, Texas, U.S.A.

Now
45 °F

Passing clouds.


Feels Like: 42 °F
Forecast: 29 / 56 °F
Wind: 6 mph from Southeast

Location: Dallas / Fort Worth International Airport

Current Time: Mar 6, 2015 at 8:03:43 PM

Latest Report: Mar 6, 2015 at 6:53 PM


Visibility: 10 mi

Pressure: 30.44 "Hg

Humidity: 49%

Dew point: 27 °F

Location of IrvingLocation

Historic Weather in Irving — Graph

°F

Irving temperature yesterday

Maximum temperature yesterday: 39 °F (at 4:53 PM)
Minimum temperature yesterday: 22 °F (at 6:53 AM)
Average temperature yesterday: 30 °F

Past Weeks' High & Low Weather Summary

 TemperatureHumidityPressure
High69 °F (Feb 20, 2:53 PM)100% (Mar 2, 8:53 PM)30.64 "Hg (Mar 2, 8:53 PM)
Low22 °F (Mar 5, 6:53 AM)33% (Mar 6, 3:53 PM)29.64 "Hg (Feb 21, 2:53 AM)
Average38 °F80%30.21 "Hg
* Reported Feb 19 6:53 PM — Mar 6 6:53 PM, Irving, Weather by CustomWeather, © 2015

Note: Actual official high and low records may vary slightly from our data, if they occured in-between our weather recording intervals... More about our weather records

Advertising

Irving weather history for previous 24 hours

 ConditionsComfort  
Time TempWeatherWind HumidityBarometerVisibility
6:53 PM
Fri, Mar 6
45 °FPassing clouds.6 mph49%30.44 "Hg10 mi
5:53 PM49 °FPassing clouds.6 mph43%30.45 "Hg10 mi
4:53 PM51 °FSunny.5 mph35%30.45 "Hg10 mi
3:53 PM51 °FSunny.5 mph33%30.46 "Hg10 mi
2:53 PM49 °FSunny.No wind38%30.48 "Hg10 mi
1:53 PM48 °FSunny.3 mph34%30.51 "Hg10 mi
12:53 PM46 °FSunny.3 mph37%30.55 "Hg10 mi
11:53 AM44 °FSunny.7 mph40%30.58 "Hg10 mi
10:53 AM42 °FPassing clouds.5 mph41%30.60 "Hg10 mi
9:53 AM39 °FSunny.8 mph50%30.60 "Hg10 mi
8:53 AM33 °FPassing clouds.3 mph72%30.60 "Hg10 mi
7:53 AM30 °FPassing clouds.6 mph79%30.58 "Hg9 mi
6:53 AM24 °FPassing clouds.No wind88%30.58 "Hg9 mi
5:53 AM25 °FClear.5 mph81%30.58 "Hg10 mi
4:53 AM25 °FClear.6 mph81%30.57 "Hg10 mi
3:53 AM28 °FClear.8 mph75%30.56 "Hg10 mi
2:53 AM28 °FClear.9 mph72%30.57 "Hg10 mi
1:53 AM26 °FClear.8 mph81%30.58 "Hg10 mi
12:53 AM29 °FClear.7 mph72%30.59 "Hg10 mi
11:53 PM
Thu, Mar 5
30 °FClear.7 mph66%30.60 "Hg10 mi
10:53 PM30 °FClear.5 mph69%30.60 "Hg10 mi
9:53 PM33 °FClear.5 mph61%30.60 "Hg10 mi
8:53 PM33 °FClear.5 mph61%30.60 "Hg10 mi
Weather by CustomWeather, © 2015

See weather overviewHow to use our weather pages